Regional Weather Roundup
Issued by NWS

Home | Current Version | Previous Version | Text Only | Print | Product List | Glossary On
Versions: 1 2 3 4 5 6 7 8 9 10 11 12 13 14 15 16 17 18 19 20 21 22 23 24 25 26 27 28 29 30 31 32 33 34 35 36 37 38 39 40 41 42 43 44 45 46 47 48 49 50
000
ASUS43 KDTX 251201
RWRMI
MICHIGAN HOURLY REGIONAL WEATHER ROUNDUP
NATIONAL WEATHER SERVICE DETROIT/PONTIAC MI
800 AM EDT SUN JUN 25 2017

NOTE: "FAIR" INDICATES FEW OR NO CLOUDS BELOW 12,000 FEET WITH NO
SIGNIFICANT WEATHER AND/OR OBSTRUCTION TO VISIBILITY.

MIZ047>049-052>055-059>063-066>070-074>076-081>083-251300-
SOUTHEAST LOWER MICHIGAN

CITY           SKY/WX    TMP DP  RH WIND       PRES   REMARKS
ADRIAN         SUNNY     59  51  75 W6        30.03R
6HR MIN TEMP:  53; 6HR MAX TEMP:  59;

ALMA           SUNNY     56  50  81 W9G18     29.98R
ANN ARBOR      MOSUNNY   59  53  80 SW7       30.00S
BAD AXE        PTSUNNY   56  51  82 SW10      29.95S
6HR MIN TEMP:  53; 6HR MAX TEMP:  56;

CARO           SUNNY     57  52  82 SW9       29.96R
DETROIT CITY   LGT RAIN  60  51  72 W6        30.00R
6HR MIN TEMP:  58; 6HR MAX TEMP:  64; 6HR PCP: TRACE;

DETROIT        CLOUDY    61  51  70 W7        30.01S
6HR MIN TEMP:  56; 6HR MAX TEMP:  62; 6HR PCP: TRACE;

FLINT          SUNNY     59  50  72 W13       29.98S
6HR MIN TEMP:  54; 6HR MAX TEMP:  59; 6HR PCP: TRACE;

GROSSE ILE     CLOUDY    58  51  78 W6        30.00S
6HR MIN TEMP:  57; 6HR MAX TEMP:  60;

HILLSDALE      MOSUNNY   57  48  72 W9        30.03R
HOWELL         CLOUDY    57  49  72 W12       30.00S
6HR MIN TEMP:  55; 6HR MAX TEMP:  58;


CITY           SKY/WX    TMP DP  RH WIND       PRES   REMARKS
JACKSON        MOSUNNY   58  52  80 W9        30.01S
6HR MIN TEMP:  54; 6HR MAX TEMP:  58; 6HR PCP:  0.02;

LAMBERTVILLE   MOSUNNY   58  50  74 NW5       30.01S
6HR MIN TEMP:  55; 6HR MAX TEMP:  60;

LANSING        SUNNY     59  48  67 W12       30.01R
6HR MIN TEMP:  56; 6HR MAX TEMP:  59; 6HR PCP: TRACE;

LAPEER         PTSUNNY   58  49  73 SW8       29.98S
6HR MIN TEMP:  53; 6HR MAX TEMP:  60;

MASON          SUNNY     58  49  72 W8        30.01R
MONROE         CLOUDY    58  52  78 SW3       30.01S
6HR MIN TEMP:  54; 6HR MAX TEMP:  58;

PONTIAC        PTSUNNY   59  51  75 W9        29.98S
6HR MIN TEMP:  55; 6HR MAX TEMP:  61;

PORT HOPE        N/A     58  51  78 SW7       29.91R
6HR MIN TEMP:  55; 6HR MAX TEMP:  60;

PORT HURON     CLOUDY    57  50  77 CALM      29.98R
TRI CITIES     SUNNY     58  52  80 W12       29.97R
6HR MIN TEMP:  55; 6HR MAX TEMP:  59;

MIDLAND        FAIR      56  49  78 W6        29.95S
6HR MIN TEMP:  53; 6HR MAX TEMP:  56;

TROY           CLOUDY    61  47  61 W7        30.01S
SAGINAW HB     SUNNY     59  46  63 SW10      29.96S
$$
MIZ043>046-050>051-056>058-064>065-071>073-077>080-251300-
SOUTHWEST LOWER MICHIGAN

CITY           SKY/WX    TMP DP  RH WIND       PRES   REMARKS
BATTLE CREEK   SUNNY     57  51  80 W9        30.03R
6HR MIN TEMP:  54; 6HR MAX TEMP:  58; 6HR PCP:  0.02;

BENTON HARBOR  SUNNY     60  48  64 W14G21    30.05R
6HR MIN TEMP:  57; 6HR MAX TEMP:  64;

BIG RAPIDS     MOSUNNY   55  49  80 W10       29.97S
6HR MIN TEMP:  52; 6HR MAX TEMP:  57;

COLDWATER      SUNNY     58  51  77 W7        30.04R
6HR MIN TEMP:  53; 6HR MAX TEMP:  58;

FREMONT        FAIR      56  50  81 W7        29.99R
HOLLAND        SUNNY     59  50  72 W13       30.03R
6HR MIN TEMP:  57; 6HR MAX TEMP:  63;

GRAND RAPIDS   MOSUNNY   58  51  78 W9        30.01R
6HR MIN TEMP:  53; 6HR MAX TEMP:  59;

IONIA          FAIR      57  49  74 W8        30.00R
6HR MIN TEMP:  53; 6HR MAX TEMP:  58;

KALAMAZOO      SUNNY     58  49  72 W8        30.04R
6HR MIN TEMP:  55; 6HR MAX TEMP:  59; 6HR PCP:  0.01;

LUDINGTON      CLOUDY    57  52  83 W10G16    29.96S
6HR MIN TEMP:  53; 6HR MAX TEMP:  57;

MARSHALL       SUNNY     58  51  78 W9        30.02S
6HR MIN TEMP:  53; 6HR MAX TEMP:  58;

MOUNT PLEASANT SUNNY     56  49  78 W8        29.96R
6HR MIN TEMP:  54; 6HR MAX TEMP:  57;

MUSKEGON       PTSUNNY   58  51  78 W8        30.01R
6HR MIN TEMP:  56; 6HR MAX TEMP:  61;

SOUTH HAVEN    MOSUNNY   60  52  74 W10       30.04R
$$
MIZ016>042-251300-
NORTHERN LOWER MICHIGAN

CITY           SKY/WX    TMP DP  RH WIND       PRES   REMARKS
ALPENA         LGT RAIN  56  56 100 NW5       29.91S
6HR MIN TEMP:  53; 6HR MAX TEMP:  56; 6HR PCP:  0.02;

BELLAIRE       PTSUNNY   57  52  85 SW3       29.93R
6HR MIN TEMP:  54; 6HR MAX TEMP:  57;

CADILLAC       SUNNY     53  50  91 SW9       29.94S
CHARLEVOIX     SUNNY     59  55  87 W7        29.94R
6HR MIN TEMP:  55; 6HR MAX TEMP:  59;

FRANKFORT      CLOUDY    56  51  83 W12       29.94R
GAYLORD        PTSUNNY   53  48  83 W6        29.92S
6HR MIN TEMP:  53; 6HR MAX TEMP:  55;

GRAYLING       PTSUNNY   50  49  94 W6        29.94
6HR MIN TEMP:  49; 6HR MAX TEMP:  53;

HARBOR SPRINGS PTSUNNY   59  55  87 W8        29.91S
HOUGHTON LAKE  MOSUNNY   54  49  83 W8        29.95R
6HR MIN TEMP:  51; 6HR MAX TEMP:  57; 6HR PCP: TRACE;

MANISTEE       CLOUDY    56  52  86 SW8       29.95R
OSCODA         CLOUDY    56  54  92 W7        29.92R
6HR MIN TEMP:  51; 6HR MAX TEMP:  56;

PELLSTON       PTSUNNY   57  53  86 CALM      29.92S
6HR MIN TEMP:  51; 6HR MAX TEMP:  58;

ROGERS CITY    MOSUNNY   57  56  94 W8        29.91S
TRAVERSE CITY  MOSUNNY   57  52  83 SW6       29.91S
6HR MIN TEMP:  53; 6HR MAX TEMP:  58; 6HR PCP:  0.01;

$$
MIZ007>008-015-251300-
EASTERN UPPER MICHIGAN

CITY           SKY/WX    TMP DP  RH WIND       PRES   REMARKS
KINROSS        CLOUDY    51  50  96 NW7       29.91S
6HR MIN TEMP:  51; 6HR MAX TEMP:  53;

MACKINAC ISLAN MOSUNNY   55  55 100 N3        29.91S
6HR MIN TEMP:  50; 6HR MAX TEMP:  55;

NEWBERRY       CLOUDY    51  50  97 NW5       29.92R
6HR MIN TEMP:  50; 6HR MAX TEMP:  52; 6HR PCP:  0.36;

S. S. MARIE    CLOUDY    54  50  86 W5        29.90S FOG
6HR MIN TEMP:  52; 6HR MAX TEMP:  54; 6HR PCP:  0.05;

MUNISING         N/A     50  50 100 N6        29.93S
6HR MIN TEMP:  50; 6HR MAX TEMP:  54; 6HR PCP:  0.09;

$$
MIZ004>006-011>014-085-251300-
CENTRAL UPPER MICHIGAN

CITY           SKY/WX    TMP DP  RH WIND       PRES   REMARKS
MANISTIQUE     CLOUDY    52  49  89 N5        29.93R
6HR MIN TEMP:  51; 6HR MAX TEMP:  53; 6HR PCP:  0.01;

ESCANABA       CLOUDY    54  53  97 NW3       29.94R
6HR MIN TEMP:  53; 6HR MAX TEMP:  54; 6HR PCP:  0.01;

MENOMINEE      CLOUDY    54  52  93 NW6       29.95R
6HR MIN TEMP:  52; 6HR MAX TEMP:  54; 6HR PCP:  0.06;

SAWYER-GWINN   FOG       52  50  93 NE5       29.95R VSB 1/2
$$
MIZ001>003-009>011-084-251300-
WESTERN UPPER MICHIGAN

CITY           SKY/WX    TMP DP  RH WIND       PRES   REMARKS
IRON MOUNTAIN  CLOUDY    53  50  89 NW8       29.95R
6HR MIN TEMP:  51; 6HR MAX TEMP:  54; 6HR PCP:  0.03;

HOUGHTON       FOG       52  51  97 NW8       29.94F VSB 1/2
6HR MIN TEMP:  49; 6HR MAX TEMP:  52;

COPPER HARBOR    N/A     53  52  96 N6        29.93
6HR MIN TEMP:  47; 6HR MAX TEMP:  53;

IRONWOOD       FOG       52  52 100 W6        30.00S VSB 1/4
6HR MIN TEMP:  52; 6HR MAX TEMP:  53;

$$

ABBREVIATIONS USED IN REMARKS
   TC - TEMPERATURE IN CELSIUS
  WCI - WIND CHILL INDEX
   HX - HEAT INDEX
  VSB - VISIBILITY





USA.gov is the U.S. government's official web portal to all federal, state and local government web resources and services.